sat.trackr.live / text

‹ back to catalog

SITRO-AIS 47

NORAD 61773 · 2024-199AQ

PAYLOAD ACTIVE UNKNOWN

§ Identity

Operator
Country
CIS
Launch date
2024-11-04
Launch site
VOSTO
Launch vehicle
Mass (kg)
RCS (m²)

External: N2YO · Heavens-Above · Gunter

§ Orbital elements

Epoch: 2026-09-22T21:48:13.746816Z

Period
91.74 min
Inclination
97.2706°
Eccentricity
0.0001914
Mean motion
15.69733381 rev/d
Perigee alt
358.4 km
Apogee alt
360.9 km
Semi-major
6,737.8 km
B*
5.6433e-4
RAAN
145.0705°
Arg perigee
274.7355°
Mean anomaly
85.3689°
Rev number
14,971

§ Raw data

SITRO-AIS 471 61773U 24199AQ  26265.90849244  .00067275  00000+0  56433-3 0  99902 61773  97.2706 145.0705 0001914 274.7355  85.3689 15.69733381149714

JSON: /api/v1/satellites/61773 · /tle

For live sub-satellite position, see the globe view (requires WebGL).

§ Visibility from observer

Set your observer location to see the next 7 days of passes ≥ 10°. The values pass through the URL so the page stays shareable.

No JS? Fill the form by hand. The geolocation button needs JavaScript.

§ Radio — SatNOGS DB

ModeDescriptionDownlinkUplink
GMSK USP Mode U - GMSK2k4 - USP 401.225 MHz

1 transmitter · refreshed weekly from db.satnogs.org